Theta_e
313 314 315 319 320 322 324 325 327 326 324 321 321 321 319 322 323 322 321 320 320 319 320 320 320 320 319 320 319 319 320 320 321 324 327 325 322 322 320 319 321 325 328 329 332 337 337 337 339 340 340 339 339 338 337 337 337 336 336 336 336 335 334 334 333 332 333 331 326 321 318 319 319 320 320 322 326 327 327 328 328 331 332 332 332 334 334 332 331 331 329 328 327 326 324 323 322
313 314 317 320 321 325 327 326 325 323 321 321 320 320 320 323 322 321 321 320 320 319 320 319 319 319 320 320 319 319 320 321 322 325 327 328 325 320 318 320 325 332 334 332 331 335 336 337 338 339 339 339 339 338 338 337 337 337 336 336 336 336 336 336 334 331 332 331 326 321 319 320 319 321 323 323 324 325 326 325 326 330 331 331 332 333 333 332 331 329 328 328 326 326 325 324 321
314 316 319 322 323 326 327 326 324 320 319 319 319 320 322 322 321 321 320 319 319 319 320 320 320 320 321 320 320 319 320 322 323 325 326 329 326 319 319 319 327 337 337 335 333 333 336 336 337 339 339 339 338 338 338 337 337 337 337 336 336 337 336 336 335 331 333 333 329 323 320 320 322 325 325 325 324 325 326 325 324 328 330 330 331 332 332 331 327 323 321 322 322 323 323 321 317
314 317 321 325 327 326 327 328 325 321 318 318 318 321 323 322 321 319 319 319 319 319 320 320 319 319 320 319 320 319 320 322 323 323 321 321 320 318 320 319 326 337 338 338 335 333 336 337 336 337 339 338 338 338 338 337 337 336 337 336 335 336 335 336 336 332 333 333 331 326 322 322 326 328 327 325 325 324 326 325 323 325 328 330 331 330 330 328 321 316 313 314 316 317 317 315 313
316 320 322 325 328 327 326 325 324 322 319 319 318 321 321 320 320 319 319 319 318 318 319 320 318 318 319 319 320 321 320 321 321 320 318 318 318 318 319 320 323 329 336 340 337 334 337 338 336 336 338 338 338 338 337 337 337 336 336 336 336 336 334 334 334 333 332 332 332 328 323 325 329 330 328 326 325 325 324 325 324 325 326 328 328 326 326 322 315 313 310 309 311 312 312 311 310
318 321 321 322 326 325 324 322 321 321 321 321 319 320 320 319 319 318 318 318 317 317 319 319 318 318 319 319 319 320 319 320 323 319 318 317 317 318 317 325 327 324 335 342 339 337 337 338 335 335 337 338 338 337 336 336 336 337 336 337 336 336 334 333 333 334 331 330 332 329 325 327 331 331 329 327 326 327 325 325 325 325 325 325 323 320 321 317 315 315 309 308 309 309 309 310 309
321 323 323 324 324 323 327 323 320 321 321 321 319 319 319 318 319 318 318 317 317 317 317 318 318 318 319 320 319 319 318 318 322 319 317 316 316 317 316 328 331 328 337 341 339 338 336 336 335 335 336 337 338 338 336 335 336 337 337 336 336 335 334 333 333 334 331 328 330 328 325 327 331 330 329 327 327 328 328 327 324 323 323 322 319 316 320 319 318 316 309 307 307 308 309 309 307
322 324 324 326 328 324 327 324 321 322 320 320 319 319 318 318 319 319 318 317 317 317 316 317 317 318 318 320 319 318 318 317 319 318 317 315 315 317 316 323 328 332 339 339 337 337 334 334 333 333 336 337 337 338 337 336 336 337 337 336 334 334 333 332 331 333 330 329 329 328 327 328 329 328 329 329 329 330 330 329 326 325 323 320 318 317 321 321 320 317 309 306 306 307 308 307 306
322 324 323 326 328 324 324 323 321 320 320 320 318 318 318 318 319 318 318 316 317 317 317 317 317 318 319 320 318 317 317 316 316 317 316 315 315 316 316 317 321 327 334 337 336 334 331 330 331 333 336 337 336 337 337 337 337 337 337 336 335 333 332 330 328 329 329 329 330 329 330 329 328 327 328 330 331 331 331 331 329 328 326 323 322 321 324 324 321 317 310 306 306 307 307 305 305
322 324 324 326 325 321 321 321 321 320 320 320 318 318 318 318 319 318 318 317 318 318 317 318 317 317 319 319 318 316 315 315 315 316 315 315 315 314 316 316 317 318 324 332 332 327 325 326 330 332 335 337 336 337 337 337 337 337 337 336 335 333 331 328 326 326 327 329 329 328 329 329 328 327 327 330 331 332 331 331 331 330 330 328 327 327 327 325 322 318 312 307 306 306 306 305 305
323 322 322 325 323 319 320 321 322 322 320 320 319 318 318 318 318 318 318 317 317 318 317 318 318 316 318 318 316 315 313 314 314 315 315 315 315 315 315 315 316 316 317 323 323 321 320 324 329 331 333 336 337 336 336 337 337 337 337 336 335 334 332 329 326 325 326 328 328 328 328 327 327 328 327 328 330 332 331 332 332 331 331 330 330 329 328 326 323 320 315 309 306 306 305 305 304
323 324 323 323 323 321 322 323 322 322 320 319 319 318 318 318 318 318 318 318 318 318 317 317 317 316 318 318 315 314 314 314 314 314 315 315 315 315 315 315 315 316 317 318 319 318 318 321 326 329 331 333 336 336 336 337 336 336 336 336 335 334 333 331 328 325 325 326 327 327 328 327 327 328 326 326 329 330 331 331 332 331 331 330 330 329 328 326 325 323 319 311 307 306 305 305 304
323 325 323 323 325 325 323 323 323 323 321 319 318 317 317 318 318 319 319 318 318 318 317 317 317 317 317 318 315 315 314 314 314 314 314 314 315 315 315 315 315 315 316 317 317 317 316 319 323 326 328 331 334 335 335 335 335 336 336 335 335 334 333 332 330 326 324 324 325 326 326 327 326 325 324 325 328 330 330 330 330 331 330 329 330 329 327 325 325 324 321 314 308 307 305 305 304
322 322 322 325 326 324 323 323 323 322 320 319 318 317 318 318 318 318 318 318 317 317 316 316 317 317 317 317 316 316 315 314 314 314 314 314 314 315 316 315 315 315 315 316 316 316 316 316 318 321 325 328 331 333 334 334 334 335 335 335 335 334 333 332 330 327 325 324 324 324 325 325 325 323 323 324 327 328 330 330 330 330 329 328 327 326 323 322 323 323 322 316 310 308 306 305 304
320 320 321 324 323 321 323 325 324 322 320 318 318 317 317 317 317 317 318 317 317 316 316 316 316 317 317 317 317 315 314 314 314 314 314 314 314 314 315 316 316 315 315 316 316 316 316 315 315 316 320 324 327 329 331 333 334 335 335 335 335 335 334 332 331 329 327 325 324 324 324 324 324 324 324 324 325 326 328 329 329 328 327 326 325 324 322 321 321 322 322 318 313 310 307 306 305
316 319 323 322 320 320 322 324 323 321 319 318 317 317 317 317 317 317 317 317 317 317 316 317 316 316 316 316 315 314 314 314 314 314 314 314 314 315 314 315 316 316 315 315 315 316 315 315 315 315 316 318 322 326 328 329 332 333 334 334 335 335 334 333 332 331 329 327 326 325 324 324 324 323 324 323 324 325 326 327 326 325 326 326 325 324 322 321 322 324 323 320 315 313 310 307 305
314 320 323 321 320 319 320 323 321 320 319 318 317 317 318 317 317 317 316 316 317 317 316 316 315 315 315 314 314 314 314 314 314 314 314 314 316 317 316 315 315 316 316 315 315 315 316 315 316 316 315 316 317 321 326 327 328 330 331 332 334 335 334 333 333 333 331 328 326 325 325 325 324 324 326 326 325 326 326 326 325 326 326 326 326 325 324 323 324 325 323 321 317 315 313 309 307
319 324 322 320 322 320 320 321 320 321 319 318 317 318 318 318 318 317 317 317 317 317 316 315 314 314 314 314 313 313 313 313 313 313 313 314 317 318 316 315 315 315 316 316 315 315 315 316 316 316 316 316 316 317 323 326 327 329 330 330 332 333 333 333 334 335 333 330 328 327 326 325 325 326 328 328 328 327 326 326 326 325 325 325 325 324 324 325 326 326 325 323 319 316 314 311 309
321 325 322 321 322 321 320 320 319 320 320 318 318 318 318 318 318 318 317 317 317 316 315 315 315 314 314 313 313 313 313 313 313 313 313 313 314 316 315 314 314 314 315 315 316 316 315 315 316 316 316 317 318 318 322 327 329 331 332 330 331 331 332 331 332 334 334 332 331 329 328 326 327 328 328 328 328 327 325 324 324 323 324 324 325 324 323 326 327 327 327 325 322 319 318 316 313
321 323 322 321 320 320 319 319 319 319 319 319 318 317 317 318 318 317 317 318 318 316 315 316 316 315 315 313 313 313 313 313 313 313 313 313 313 313 313 313 313 314 314 314 315 316 316 315 315 316 316 317 320 320 322 328 330 331 333 332 331 331 331 331 331 333 333 333 333 332 331 329 330 330 329 329 328 327 326 325 324 324 325 325 325 323 323 326 328 328 327 326 325 323 322 320 317
320 320 321 319 318 319 318 318 318 317 318 318 318 317 317 317 318 317 317 317 317 316 315 316 316 315 314 314 313 313 313 313 313 313 313 313 313 313 313 313 313 313 313 313 314 315 315 315 315 315 316 316 319 320 320 326 329 330 332 331 331 332 332 333 332 333 334 334 334 333 333 332 332 332 331 331 330 329 329 328 328 327 327 326 326 323 322 326 328 328 327 327 326 325 325 324 322
320 319 319 318 318 319 318 318 317 317 317 317 317 317 317 318 317 317 316 317 317 315 314 315 315 314 314 313 313 313 313 313 313 313 313 313 313 313 313 313 313 313 313 313 313 313 314 314 315 314 315 316 317 320 321 323 327 329 331 331 332 333 333 334 333 333 334 333 334 333 333 333 332 333 332 332 331 331 331 330 330 330 329 328 326 323 322 326 328 328 327 327 326 326 326 325 324
320 319 318 318 318 318 318 317 316 316 317 317 317 317 317 317 317 317 317 317 316 315 314 313 313 313 313 313 312 312 312 313 312 312 313 313 313 313 313 313 313 313 313 313 313 313 313 313 313 313 314 315 316 319 321 323 328 329 329 330 331 332 331 332 332 333 333 333 333 333 333 333 333 332 332 332 331 332 332 331 331 330 330 329 326 324 324 327 328 328 327 327 327 326 326 325 325
320 320 318 318 317 318 318 317 316 316 316 316 316 317 316 316 316 317 316 316 315 315 313 313 312 312 312 312 312 312 312 312 312 312 312 313 313 313 313 313 313 313 313 313 313 313 313 313 313 313 313 313 316 319 320 325 329 330 329 328 330 331 330 330 331 331 332 332 332 332 332 332 331 332 331 331 331 331 331 331 331 330 329 329 327 326 326 327 327 326 326 326 327 326 326 325 325
319 319 318 318 317 317 317 317 316 316 316 316 316 316 316 316 316 316 316 315 315 314 313 312 312 312 312 312 312 312 312 312 312 312 312 312 313 313 313 313 313 313 313 313 313 313 313 313 313 314 314 315 318 319 321 325 328 328 328 328 328 329 329 328 329 330 330 331 332 333 333 331 330 331 330 331 331 331 331 332 331 330 330 328 327 327 327 327 326 325 325 326 326 327 326 325 324
318 318 318 318 317 318 317 317 316 316 316 316 316 316 316 316 316 316 315 315 314 313 312 312 311 311 311 312 311 312 312 312 312 312 312 312 312 313 312 312 312 312 312 312 313 313 313 314 314 314 315 318 321 320 321 325 327 327 327 326 327 327 327 326 326 328 328 331 333 332 331 329 328 330 330 330 330 330 330 330 331 331 330 329 327 326 326 326 325 324 323 324 325 326 325 325 325
317 317 317 318 318 318 318 317 317 317 316 316 315 316 316 315 315 316 314 314 314 312 311 311 311 311 311 311 311 311 312 312 312 312 312 312 312 312 312 312 312 312 312 312 312 313 313 314 315 315 317 321 324 323 324 327 327 327 326 326 327 327 326 326 326 327 327 329 331 329 328 327 327 329 329 328 328 329 329 328 330 329 328 327 326 325 324 323 323 323 324 325 325 325 325 325 325
317 317 317 317 318 318 318 318 318 317 316 316 315 316 315 314 315 315 314 313 312 311 310 310 310 310 311 311 311 311 311 311 312 312 312 313 312 312 312 311 311 312 312 312 313 313 314 315 315 316 319 323 325 326 326 327 327 326 327 327 327 327 328 328 327 327 327 328 328 329 329 328 327 327 326 326 328 329 329 329 329 327 325 324 324 325 324 323 323 323 324 325 325 325 325 325 325
317 316 317 318 318 318 319 318 318 317 316 316 315 316 316 314 314 314 313 312 311 310 310 310 310 310 310 310 310 311 311 311 311 311 312 312 312 312 312 311 311 312 312 313 314 314 314 315 316 316 318 323 326 326 326 326 326 326 327 328 326 326 327 328 327 327 327 327 327 328 328 328 328 326 326 327 329 330 329 329 327 326 325 324 324 324 324 323 324 324 324 324 325 325 325 325 324
317 317 317 319 320 320 319 318 316 316 315 315 315 318 319 316 313 312 312 311 311 311 310 310 310 309 310 310 310 311 310 310 311 311 311 311 311 311 311 311 311 312 313 314 314 315 316 316 317 319 318 321 323 323 325 327 326 325 326 327 326 325 326 326 326 326 326 325 325 325 325 327 328 327 328 328 328 329 328 327 326 326 325 324 323 324 324 323 324 324 324 324 324 324 324 323 322
317 318 319 320 321 320 318 317 316 315 315 314 315 319 320 315 312 311 311 311 310 311 311 310 310 310 310 310 310 310 310 310 310 310 310 310 310 311 311 311 312 312 313 314 314 316 319 319 320 321 321 323 325 324 325 328 326 326 326 326 326 326 326 326 326 325 324 323 322 322 323 325 326 326 327 326 326 325 325 325 324 324 324 323 323 323 324 323 323 323 323 323 323 323 322 322 322
318 319 321 322 321 320 318 317 316 316 315 314 315 318 319 315 312 311 311 310 311 312 312 311 310 310 310 310 309 309 309 309 309 309 310 310 310 310 310 311 312 313 314 315 315 317 320 321 321 322 323 324 326 327 326 325 324 325 325 325 325 326 326 326 325 323 322 321 320 320 321 322 323 323 323 324 323 323 323 323 322 323 323 323 323 323 323 323 323 323 322 322 322 321 321 321 321
321 321 322 323 323 321 318 317 316 316 315 314 316 318 319 316 313 311 310 310 311 312 313 312 311 310 309 309 309 309 309 308 308 309 309 310 310 309 310 312 313 315 316 316 316 317 318 320 319 320 323 324 324 325 326 325 323 323 323 322 322 323 323 322 321 321 321 321 320 320 321 321 322 322 323 323 323 323 323 323 323 323 323 323 323 322 322 322 322 321 321 320 320 320 320 320 320
323 322 322 323 323 322 319 318 317 317 316 315 315 316 317 317 313 311 311 310 311 312 313 312 311 310 309 309 309 308 309 308 308 309 309 310 310 309 310 312 313 315 316 316 316 317 318 320 319 318 320 321 321 322 323 323 323 321 321 321 321 321 321 320 320 321 321 321 322 322 322 322 322 322 322 322 322 322 321 321 321 321 322 322 321 321 320 320 320 319 319 318 317 317 316 316 315
323 323 323 323 323 322 321 320 317 317 317 316 317 316 317 317 314 311 311 310 311 312 312 313 311 310 310 309 309 308 309 308 308 309 309 310 311 310 310 312 314 317 317 317 317 319 320 321 321 320 319 320 320 321 321 320 320 320 320 320 320 319 319 319 320 321 321 321 322 321 321 321 321 321 321 321 320 319 318 317 317 318 319 320 319 319 318 318 317 316 315 313 311 310 309 308 307
322 323 323 322 322 321 321 319 317 316 317 317 319 318 318 319 316 312 311 311 311 311 312 313 312 311 310 309 309 308 309 308 309 309 308 309 310 310 311 311 315 319 319 318 318 319 320 320 320 320 320 319 319 319 319 319 319 319 319 319 318 319 319 319 320 320 320 320 320 320 320 319 318 318 317 316 315 313 312 311 312 314 315 315 315 314 313 312 311 310 309 306 304 304 303 303 303
321 322 322 322 321 321 321 319 316 316 318 319 320 320 320 321 319 314 311 311 311 312 312 313 312 311 310 309 309 308 308 308 308 308 308 309 310 310 311 311 313 316 319 319 317 316 317 318 318 318 318 318 317 317 318 318 318 318 318 318 318 319 319 319 319 319 318 318 317 316 315 314 312 310 309 308 308 307 307 307 307 308 308 308 308 307 306 305 304 303 303 302 302 301 301 301 301
320 321 322 322 322 321 321 319 316 316 319 320 320 321 320 320 321 316 311 312 311 312 313 313 312 311 310 309 309 308 308 308 308 308 308 309 310 310 312 312 312 314 317 318 316 315 315 315 315 316 317 316 316 317 317 317 318 317 317 317 318 318 318 316 315 314 313 312 310 309 307 306 305 305 304 304 304 304 304 304 303 303 303 303 302 302 301 301 300 300 300 300 300 299 299 299 299
322 321 322 322 322 322 321 318 316 316 318 320 319 320 319 319 321 317 312 311 312 312 312 313 312 311 310 309 309 308 308 308 307 307 308 309 309 310 312 313 313 314 315 316 315 315 315 315 315 315 316 315 316 316 316 316 317 316 316 317 317 316 313 311 309 307 306 305 304 304 303 303 303 302 302 302 302 302 301 301 301 300 300 300 299 299 299 298 298 298 297 297 297 297 297 297 297
322 321 322 322 322 323 322 318 316 316 317 319 319 319 318 318 320 319 314 312 312 313 313 313 312 311 310 310 309 309 308 308 307 307 307 308 309 310 311 312 314 315 314 315 316 315 315 315 314 315 315 316 315 315 315 315 316 316 316 315 312 309 307 305 304 304 303 303 302 302 301 301 301 300 300 300 300 300 299 299 299 298 298 298 298 298 297 297 297 296 296 296 296 296 295 295 295
322 323 322 322 322 323 323 321 318 317 317 318 318 320 321 319 320 320 317 314 313 312 312 312 312 311 310 309 309 308 308 308 307 307 307 308 309 309 310 312 315 315 314 315 316 315 314 314 314 315 316 316 315 314 314 314 314 315 312 309 306 304 304 303 303 302 301 301 301 300 300 299 299 299 299 298 298 298 298 298 297 297 297 297 297 297 296 296 296 295 295 295 295 294 294 293 293
322 324 322 321 322 322 324 324 322 322 323 319 318 324 328 324 322 321 318 315 314 311 310 310 311 310 309 309 308 308 307 307 307 307 307 308 308 309 310 312 314 315 314 315 316 314 313 313 314 315 315 314 314 313 312 312 311 309 306 304 304 303 303 301 301 301 300 300 300 299 299 298 298 298 298 298 297 297 297 297 297 296 296 296 296 296 295 295 295 295 294 294 294 293 293 293 292
321 326 326 322 321 323 324 324 324 326 326 321 319 326 327 324 322 322 318 315 314 312 309 309 309 309 308 308 308 307 307 306 306 306 307 308 308 309 310 312 314 314 315 315 314 313 313 314 314 314 313 312 311 310 310 309 307 305 304 303 303 302 302 301 300 300 300 299 299 299 298 298 297 297 297 297 297 296 296 296 296 296 296 296 295 295 295 294 294 294 293 293 293 292 292 292 291
324 327 327 323 321 324 324 324 325 326 324 322 321 323 324 323 322 321 318 315 315 313 311 309 309 308 308 307 307 307 306 306 305 305 306 308 308 309 310 311 313 314 314 314 313 313 313 313 312 311 310 309 308 307 306 305 304 303 303 302 301 301 301 301 300 299 299 299 299 298 298 297 297 297 296 296 296 296 296 295 295 295 295 294 294 294 294 293 293 292 292 292 291 291 291 291 290
325 325 324 324 323 324 323 324 325 324 324 324 323 322 325 324 322 321 319 317 316 314 312 310 308 309 308 307 307 306 306 306 305 305 306 307 308 309 310 310 312 314 314 313 313 313 312 311 309 308 306 305 304 304 303 303 302 302 301 301 301 301 300 300 299 299 298 298 298 298 297 297 296 296 296 296 295 295 295 294 294 294 294 293 293 293 292 292 292 291 291 291 290 290 290 289 289
322 323 323 323 323 322 322 323 324 323 323 324 324 323 325 325 324 323 320 319 319 317 315 311 308 309 308 307 307 306 305 305 305 305 306 307 308 309 310 310 311 313 313 312 313 312 310 308 306 305 304 303 302 302 302 302 301 301 300 301 301 300 300 299 299 298 298 297 297 297 296 296 296 295 295 295 295 294 294 294 293 293 293 293 292 292 291 291 291 290 290 290 289 289 289 289 288
319 321 323 322 321 321 321 321 321 323 323 324 323 322 324 325 326 324 321 320 319 318 318 313 309 308 308 307 306 305 305 304 304 305 306 307 308 309 311 310 311 312 313 312 311 309 306 305 304 303 302 302 301 301 301 300 300 300 300 300 300 300 299 299 298 298 297 297 297 296 296 296 295 295 295 294 294 294 293 293 293 293 292 292 292 291 291 291 290 290 289 289 289 289 288 288 288
319 322 323 322 322 321 320 320 320 323 324 323 323 322 322 324 326 323 322 320 319 320 319 315 310 308 307 306 306 305 305 304 304 304 305 306 308 309 310 311 311 312 312 311 308 306 304 303 302 302 302 301 301 300 300 300 299 299 299 299 299 299 298 298 298 297 297 296 296 296 295 295 295 294 294 294 294 293 293 293 293 292 292 292 291 291 291 290 290 290 289 289 289 289 288 288 288
320 322 323 325 325 323 323 323 322 323 323 320 320 322 323 323 323 321 322 320 318 318 316 312 309 307 307 306 306 305 304 304 304 304 306 307 308 309 310 310 310 311 310 307 305 304 303 302 302 301 301 300 300 300 299 299 299 299 298 298 298 298 298 297 297 297 296 296 296 295 295 295 294 294 294 294 293 293 293 293 292 292 292 291 291 291 290 290 290 290 289 289 289 288 288 288 288
319 321 323 326 326 326 327 326 325 326 323 317 317 322 325 323 322 322 321 317 313 313 312 311 310 308 307 306 305 304 304 304 304 304 306 307 308 309 309 308 308 308 306 305 303 303 302 302 301 301 300 300 299 299 299 298 298 298 298 298 298 298 297 297 297 296 296 296 295 295 295 295 294 294 293 293 293 293 293 292 292 292 291 291 291 290 290 290 290 289 289 289 288 288 288 288 288
317 319 321 324 326 328 329 328 328 328 323 316 316 323 327 325 324 320 315 311 309 310 312 311 310 308 307 306 305 304 303 303 303 304 306 307 308 308 308 307 306 305 304 303 302 302 302 301 301 300 300 300 299 299 298 298 298 298 298 297 297 297 297 297 296 296 296 296 295 295 295 294 294 294 293 293 293 293 292 292 292 291 291 291 290 290 290 289 289 289 289 288 288 288 288 287 287
318 319 321 323 324 326 327 326 324 322 322 320 319 323 323 321 321 316 309 308 309 309 310 310 309 308 306 305 304 303 303 303 303 304 305 306 307 307 306 305 304 303 303 302 302 301 301 301 301 300 300 300 299 298 298 298 298 298 297 297 297 297 297 296 296 296 296 296 296 295 295 294 294 294 293 293 293 292 292 292 291 291 291 290 290 290 289 289 289 288 288 288 288 287 287 287 287
320 320 321 323 323 323 325 325 321 319 323 324 321 322 320 317 319 316 311 311 310 308 309 308 307 307 306 305 304 303 303 303 303 304 305 306 307 306 305 304 303 302 302 302 301 301 301 301 301 300 300 299 299 298 298 298 298 297 297 297 297 296 296 296 296 296 296 296 296 295 295 294 294 293 293 293 293 292 292 291 291 290 290 290 289 289 289 288 288 288 288 287 287 287 287 287 286
321 322 321 321 323 322 322 325 324 323 325 325 323 322 321 320 320 317 314 313 311 309 309 308 306 306 305 304 304 303 303 303 303 303 305 306 306 305 304 303 302 302 302 301 301 301 301 301 301 300 300 299 299 298 298 298 297 297 297 297 296 296 296 296 296 296 296 296 295 295 294 294 293 293 293 293 292 292 291 291 290 290 289 289 289 288 288 288 288 288 288 287 287 287 287 286 286
317 319 318 321 325 324 322 323 325 327 326 325 325 323 322 321 321 318 316 315 313 310 308 309 307 305 305 304 304 303 303 302 302 303 305 305 305 304 303 302 302 302 301 301 301 301 300 300 300 300 300 299 298 298 298 297 297 297 297 296 296 296 296 296 296 296 296 296 295 295 294 294 293 293 293 293 292 292 291 290 290 289 289 289 288 288 288 288 288 287 287 287 287 286 286 286 286
314 315 317 320 322 323 323 323 323 327 326 325 326 325 323 322 320 321 319 316 314 311 309 309 307 306 305 305 304 303 303 303 303 304 304 305 304 303 303 302 302 302 301 301 301 300 300 300 300 299 299 298 298 298 297 297 297 296 296 296 296 296 295 295 296 295 296 295 295 294 294 293 293 293 293 292 292 291 290 290 289 289 289 288 288 288 288 287 287 287 287 287 286 286 286 286 285
315 316 319 320 319 320 322 322 321 324 325 325 325 325 325 323 320 320 318 315 314 312 310 309 307 306 306 305 304 304 303 303 303 304 304 304 303 303 302 302 302 301 301 300 300 300 300 300 299 299 298 298 298 298 297 297 296 296 296 296 296 295 295 295 295 295 295 295 295 294 293 293 293 292 292 292 291 291 290 289 289 289 288 288 288 288 287 287 287 287 287 287 286 286 285 285 285
318 317 318 319 319 320 322 323 321 321 322 324 324 324 324 322 319 319 318 317 314 312 310 308 307 307 306 306 305 305 304 304 304 304 304 303 303 302 302 302 301 301 301 300 300 300 300 299 299 298 298 297 297 297 297 297 296 296 296 295 295 295 295 295 295 295 295 294 294 293 293 292 292 292 292 291 291 290 290 289 289 288 288 288 288 288 287 287 287 287 287 286 286 286 285 285 285
Wind_Speed
2 3 4 3 2 1 2 2 2 3 2 4 4 3 3 2 1 2 5 5 5 7 9 7 6 6 5 2 9 18 18 13 9 5 4 3 4 3 4 3 3 5 4 4 11 15 11 9 8 9 8 7 8 7 6 4 3 3 3 3 4 4 5 6 6 6 6 6 7 9 11 11 12 12 11 11 10 10 9 8 8 8 8 8 8 8 8 10 11 11 10 9 8 8 8 9 8
4 5 5 4 2 3 2 1 1 1 4 5 4 3 1 1 2 6 8 6 6 6 6 6 5 6 4 3 7 15 17 17 18 15 11 5 4 5 5 4 5 8 6 4 9 14 11 10 8 9 8 7 7 5 5 4 3 3 2 2 3 4 5 6 6 5 6 6 6 9 11 11 11 11 11 11 10 9 9 7 6 7 7 7 7 7 8 9 11 11 11 11 10 9 9 10 10
6 6 6 4 2 4 4 1 1 1 4 4 3 2 1 3 6 7 8 8 8 5 3 4 5 6 5 2 6 12 11 15 17 15 13 5 1 6 6 6 8 10 7 3 7 12 9 9 8 8 9 7 6 5 4 3 2 2 2 2 3 4 5 5 5 5 7 6 6 8 9 11 11 11 11 11 11 10 9 7 6 5 5 6 6 7 8 9 11 12 12 12 11 10 10 10 10
7 6 6 4 4 4 3 2 2 2 3 4 3 2 3 6 7 7 9 9 7 5 3 2 4 7 8 6 8 11 10 11 12 10 9 5 4 7 7 6 9 10 9 4 5 10 8 8 8 8 9 8 7 5 4 3 2 1 1 2 2 3 4 3 4 5 6 6 7 7 8 10 10 10 10 11 11 10 9 8 6 5 4 5 6 7 7 9 12 12 11 11 11 10 10 10 10
7 6 5 4 3 2 1 2 1 4 3 1 4 3 5 6 6 8 9 8 7 5 4 4 2 5 9 11 8 6 6 5 7 8 8 7 6 7 6 7 8 9 10 5 3 8 8 8 8 8 8 8 7 6 4 3 2 2 1 2 1 2 3 3 3 4 5 6 7 6 7 8 7 8 9 10 10 9 9 8 7 5 4 5 5 6 7 10 12 12 11 11 10 10 9 9 9
7 5 3 2 4 3 2 2 2 6 3 2 5 4 6 7 7 9 10 9 8 6 4 5 4 7 9 11 13 9 7 4 3 6 8 7 6 6 7 9 7 9 12 8 5 5 6 7 9 10 8 8 8 6 5 3 3 2 2 1 1 2 3 3 3 3 5 6 7 6 5 5 6 6 8 9 10 9 8 8 6 5 5 5 5 6 8 10 12 13 13 12 10 10 8 8 7
6 4 2 3 4 2 2 1 4 5 4 5 6 5 7 7 5 8 9 7 6 6 6 5 4 6 7 7 12 12 9 6 5 7 8 7 7 5 7 10 8 10 12 10 9 5 6 6 9 12 10 9 8 7 5 4 4 4 3 2 1 1 2 3 2 2 4 6 7 6 5 5 5 5 7 8 8 8 8 7 6 5 4 4 6 8 9 10 13 14 14 13 11 9 8 6 6
5 4 1 3 1 1 2 3 6 4 2 5 7 7 8 7 2 3 6 4 4 6 6 5 2 1 5 9 9 8 8 9 9 9 8 8 7 5 5 8 10 12 12 10 10 7 8 7 9 13 11 9 8 7 6 5 5 4 3 3 3 0 1 2 1 2 3 4 5 5 5 5 4 5 6 6 6 7 7 6 5 5 3 5 7 8 9 11 14 15 15 15 12 10 7 5 5
5 6 3 2 1 1 1 4 5 3 4 5 7 8 9 6 1 2 5 5 5 7 7 5 4 1 10 16 12 6 7 9 9 8 7 7 6 6 5 5 8 12 13 10 8 9 9 9 11 13 11 10 8 8 7 5 5 5 4 3 3 2 1 0 1 2 2 3 3 3 3 4 3 4 4 4 5 5 5 5 4 4 4 6 8 9 11 13 15 16 16 15 13 10 7 5 4
5 5 2 2 1 1 1 4 4 4 5 6 8 9 8 6 1 3 4 6 4 6 6 3 4 4 11 15 10 6 6 6 6 6 6 6 5 6 5 5 6 9 12 11 9 8 9 10 12 13 11 11 10 9 8 7 6 5 4 4 3 3 2 1 1 2 3 2 2 1 2 2 2 2 2 3 3 4 4 3 3 4 4 6 9 10 13 15 16 17 17 15 14 11 8 5 4
3 5 1 2 2 2 2 4 5 4 5 5 8 9 7 5 2 2 4 6 3 5 5 3 4 4 6 12 9 5 5 4 3 3 4 4 4 4 5 5 5 6 8 11 9 6 7 10 12 13 13 12 11 10 9 8 8 6 6 5 3 3 2 2 2 2 3 3 3 2 1 1 1 1 1 2 2 2 2 2 2 4 5 7 9 11 14 16 17 17 17 16 13 12 9 6 4
2 3 0 2 4 0 1 5 5 5 6 4 6 8 8 5 3 1 4 6 3 8 9 5 3 4 1 9 9 7 4 4 3 2 2 1 2 3 4 5 5 5 6 8 9 7 6 9 11 12 13 13 12 11 10 9 9 8 7 6 5 4 3 2 2 2 3 3 3 3 3 2 2 2 1 2 2 2 2 1 2 4 6 9 10 12 15 17 18 18 17 16 14 12 10 7 4
3 4 1 2 3 2 3 4 5 5 4 4 7 9 8 5 1 4 3 3 3 6 7 4 3 4 2 11 11 9 5 2 2 1 1 1 2 3 4 4 5 6 7 7 7 7 6 9 11 13 13 14 13 12 11 10 10 9 8 7 6 6 5 4 2 2 2 3 3 3 4 3 2 2 2 2 3 2 2 2 3 5 7 10 10 12 15 17 17 18 17 16 14 12 11 9 5
3 5 2 2 3 2 2 3 4 4 3 3 10 11 7 2 3 6 4 1 6 6 4 3 1 2 3 10 9 6 4 0 2 2 3 3 2 3 4 5 5 6 7 6 6 6 6 7 10 12 14 15 15 14 13 11 10 10 9 8 8 7 6 5 4 2 2 2 2 3 3 3 3 2 2 3 3 3 3 4 4 6 8 9 10 12 14 15 15 16 16 15 14 13 12 10 7
3 4 1 2 2 1 2 2 4 4 2 5 10 12 7 4 4 3 4 5 7 5 3 1 1 1 2 3 4 2 1 3 5 4 3 3 3 2 3 4 5 6 7 7 6 6 6 6 7 9 11 14 16 15 15 14 12 11 10 10 9 8 7 7 6 4 3 2 2 2 3 3 3 2 3 3 3 4 5 5 6 7 8 9 10 11 13 13 13 13 13 13 13 13 12 11 8
2 3 1 1 0 1 1 1 3 3 3 5 9 11 8 5 3 2 3 4 4 4 4 1 1 1 1 2 2 2 5 6 6 4 3 2 2 3 3 3 5 7 8 8 8 7 7 7 6 6 8 10 13 14 15 15 14 13 12 12 11 9 8 7 7 6 5 3 3 3 3 4 3 3 4 5 4 4 5 5 7 8 8 8 9 11 12 12 10 9 10 11 11 12 12 10 9
2 2 1 3 2 2 2 2 3 3 4 6 9 9 6 5 3 1 2 1 4 6 5 3 2 1 0 2 2 4 5 3 3 2 3 2 3 1 4 3 5 6 8 9 9 9 8 7 8 7 7 8 10 12 13 14 15 14 15 14 13 11 9 8 7 6 5 4 4 4 4 4 4 4 5 5 5 5 6 6 6 7 7 8 9 10 11 10 8 8 9 10 10 10 10 10 9
2 1 1 3 1 2 1 2 4 4 6 6 7 5 2 5 5 2 1 2 4 6 6 4 3 1 1 2 2 2 0 1 2 3 3 5 8 6 7 6 6 7 7 9 10 11 11 10 9 9 9 8 9 10 12 13 14 14 15 15 15 14 11 9 8 6 6 6 4 4 5 5 4 4 5 4 5 6 6 7 7 8 9 9 10 10 10 9 8 9 10 11 11 10 10 9 9
2 1 2 2 1 3 5 8 8 5 7 8 7 2 1 5 5 2 1 4 7 6 7 7 6 3 1 1 0 1 3 4 4 3 4 6 9 10 9 8 9 9 9 10 10 12 13 12 12 11 10 10 9 10 12 12 12 12 13 14 14 13 13 11 10 8 8 7 5 4 4 4 4 5 5 5 5 6 7 8 8 9 9 10 10 10 8 7 9 10 11 13 12 12 14 13 12
0 1 2 2 2 6 9 11 10 9 8 7 7 3 0 3 4 2 2 4 5 4 7 8 8 5 1 0 2 2 3 3 3 2 3 3 5 7 8 8 10 10 11 11 11 12 13 13 13 13 11 11 11 11 12 12 9 8 9 11 12 11 12 12 11 10 9 7 6 5 4 4 6 7 7 6 6 7 8 8 8 9 8 8 8 8 8 7 8 10 11 13 13 13 16 16 15
2 2 1 3 3 4 8 10 8 8 7 5 6 3 1 2 4 2 3 4 1 5 6 9 11 8 3 2 4 3 2 2 2 1 1 1 2 4 6 8 9 10 11 12 12 12 12 13 13 14 12 11 11 11 10 9 8 7 8 9 10 10 9 9 10 10 9 8 7 6 6 6 7 6 6 5 5 5 6 6 7 7 6 6 6 7 8 7 8 8 9 12 13 14 15 16 16
3 2 4 5 6 3 7 8 6 4 4 4 3 1 1 2 3 4 5 3 1 4 5 9 10 7 5 5 6 4 3 2 1 1 1 1 2 3 5 6 7 8 10 10 11 12 11 11 12 13 12 12 11 10 10 8 8 8 8 10 11 11 9 7 9 10 9 8 7 7 7 7 6 5 5 5 3 4 6 7 7 6 5 5 5 7 8 8 8 6 6 7 9 12 14 15 15
2 2 5 6 4 3 5 5 4 3 3 2 1 2 2 2 4 6 5 3 4 7 7 6 5 4 5 7 8 5 4 2 2 1 2 2 2 3 4 6 7 8 8 9 9 9 9 9 10 10 10 12 12 12 12 9 9 10 11 12 13 13 12 10 11 12 11 10 9 7 7 6 6 6 6 5 5 5 6 5 4 4 4 4 6 7 7 6 6 5 5 6 8 10 13 13 13
2 1 5 5 3 3 4 2 1 1 0 1 3 3 4 4 5 4 4 5 7 8 6 5 4 4 7 8 8 6 4 2 2 2 3 3 4 4 4 6 7 8 8 8 9 8 8 8 9 8 7 9 11 12 11 11 11 12 12 14 15 15 14 13 13 12 13 12 10 9 8 8 7 7 7 6 7 7 6 6 6 5 5 5 7 7 6 5 6 6 7 8 9 10 11 13 14
2 1 3 3 1 1 3 3 3 3 3 4 5 5 8 8 6 4 6 9 10 9 8 8 6 6 8 9 7 5 4 3 3 4 4 5 5 5 5 6 6 6 7 8 8 8 7 7 9 9 8 9 11 12 14 15 14 13 12 14 16 16 15 15 14 13 13 12 10 10 10 10 9 9 9 8 10 9 7 9 10 9 9 8 9 8 6 6 6 7 7 8 10 11 11 14 16
3 4 2 1 2 4 5 6 7 7 6 6 5 7 11 11 8 3 7 12 11 10 9 8 7 8 9 8 6 4 4 3 4 5 5 5 5 5 6 6 5 5 6 6 7 7 6 6 7 9 11 12 12 14 17 17 15 14 14 14 16 16 16 16 15 14 13 12 10 9 10 10 11 11 10 10 10 10 8 9 9 8 8 8 8 8 7 7 7 8 9 9 11 12 13 15 15
3 4 4 6 8 8 7 8 9 8 8 9 7 7 8 8 7 3 8 13 11 9 9 8 8 9 9 8 5 4 4 5 6 6 7 7 6 6 6 5 5 5 4 5 5 5 4 5 7 9 11 13 13 14 16 17 16 16 15 15 16 15 16 15 14 13 12 12 10 9 9 9 9 10 10 10 10 9 9 9 8 7 6 7 8 8 8 8 9 8 8 9 11 13 13 13 13
3 4 6 10 13 11 10 10 9 7 5 10 10 7 4 7 4 5 12 14 11 10 9 9 9 8 8 6 5 5 6 7 8 8 8 9 8 8 7 5 4 4 4 4 4 4 4 5 8 10 11 13 14 14 15 17 17 17 17 17 17 15 14 14 13 12 10 9 9 9 8 8 8 9 10 11 9 8 8 8 6 5 5 6 7 7 8 8 8 7 7 7 9 11 10 10 11
3 3 4 7 8 9 13 13 10 8 3 7 8 4 5 7 4 7 14 13 11 10 10 10 9 8 7 5 6 7 8 8 9 9 9 8 8 8 7 6 4 4 4 4 3 3 4 5 7 9 12 15 16 16 16 16 17 17 16 15 14 13 12 10 10 9 8 8 9 10 9 7 7 8 8 8 7 8 8 7 5 5 6 6 6 7 9 9 8 7 6 7 8 9 9 9 11
3 4 3 4 5 5 11 12 9 7 4 7 7 2 5 5 7 11 12 13 14 12 11 11 9 8 7 7 9 10 9 9 9 9 8 7 7 7 7 6 5 4 4 4 5 4 4 4 6 7 8 11 13 14 15 14 15 15 14 13 11 10 9 8 8 7 6 7 7 7 7 6 5 5 5 3 4 6 7 5 4 5 6 6 7 7 9 9 8 6 6 7 7 8 9 10 12
3 3 2 2 3 3 4 9 10 6 4 8 7 2 4 2 9 12 12 14 15 13 11 11 10 9 9 10 10 10 9 9 9 8 7 7 7 7 7 6 6 5 5 5 6 7 7 5 6 6 6 8 9 10 14 14 12 12 12 11 9 8 7 7 7 6 5 4 4 3 4 6 6 6 5 5 5 4 5 4 4 5 5 5 6 6 7 7 7 6 7 7 7 8 10 11 12
2 2 2 2 3 2 2 8 10 5 3 10 7 2 3 3 8 12 12 15 14 12 13 12 11 11 11 10 8 8 9 8 8 7 6 6 6 6 7 7 5 5 5 5 6 8 10 9 8 8 8 9 10 10 11 13 11 10 9 8 8 8 7 6 6 5 4 3 2 2 3 3 4 4 4 4 3 2 2 2 2 2 2 3 4 3 3 4 5 5 6 6 7 8 9 10 11
3 4 3 3 4 4 2 4 8 4 5 8 7 3 2 3 10 13 14 17 15 12 14 14 13 12 12 10 9 10 9 7 8 8 7 7 6 5 6 6 6 7 7 7 7 8 9 9 8 10 11 10 10 10 9 9 9 9 8 7 7 7 6 5 5 4 4 4 3 4 5 5 4 4 4 4 4 3 3 2 2 1 2 2 3 2 1 1 3 3 4 5 6 8 10 11 11
3 4 3 5 5 5 3 1 5 6 5 6 7 6 6 3 11 15 17 19 18 16 15 16 16 14 13 12 12 12 10 8 10 10 8 7 7 6 6 7 7 9 9 8 8 8 9 8 6 8 11 10 9 9 8 8 8 7 7 7 7 7 7 6 7 7 7 7 7 7 7 7 6 6 5 5 4 3 2 2 2 2 2 2 2 1 1 1 1 2 3 5 7 9 11 12 12
3 2 2 4 4 5 4 1 4 8 4 5 6 7 9 5 10 16 19 20 20 19 18 17 17 16 15 15 14 13 11 11 13 12 9 9 9 7 8 9 9 10 10 10 12 12 13 11 10 10 10 10 10 9 8 8 7 8 10 10 9 8 9 10 10 9 8 8 8 8 7 6 5 4 3 2 2 1 1 2 2 3 3 2 1 1 1 2 3 4 5 6 7 8 9 10 10
5 3 1 3 3 4 3 2 5 6 3 5 7 6 8 7 8 13 18 21 21 20 18 18 18 18 17 16 16 15 14 15 16 12 10 11 10 9 9 10 12 13 12 13 14 14 13 13 13 12 11 10 10 10 9 9 9 11 12 10 9 10 11 11 10 9 9 8 7 6 5 4 4 3 2 2 2 2 2 2 2 1 1 1 0 1 2 3 4 5 5 6 7 8 8 9 11
7 3 3 5 3 5 5 1 4 3 2 5 6 6 9 8 6 12 19 20 18 18 18 19 20 20 20 18 17 17 16 17 17 12 11 12 11 11 11 11 13 16 15 13 12 12 12 13 13 14 13 12 11 11 11 11 12 12 11 10 11 13 12 11 10 9 8 7 6 6 6 6 7 8 8 8 8 8 8 8 7 7 6 5 5 6 7 7 7 8 8 7 8 9 10 12 13
6 3 4 5 3 6 5 2 4 3 1 4 6 7 10 9 7 10 18 15 15 21 21 21 23 21 21 20 18 18 18 19 16 13 13 14 13 13 13 13 14 17 17 13 12 13 13 13 13 14 14 13 12 13 13 13 13 12 11 10 12 13 12 10 10 10 10 10 11 11 12 13 13 14 13 12 12 12 11 11 11 11 11 10 10 11 11 10 10 10 10 10 12 13 14 15 15
5 3 3 4 4 5 3 2 3 3 1 3 5 7 8 9 8 7 17 17 19 28 28 25 26 24 22 21 20 20 20 19 16 15 16 16 16 15 15 16 15 17 16 14 14 14 13 13 12 12 13 12 12 12 12 12 13 12 11 11 11 12 14 13 14 16 16 16 16 16 16 16 15 15 14 13 13 12 12 11 12 12 12 11 11 11 10 11 11 11 12 13 14 14 15 17 18
3 3 3 4 4 4 3 1 2 2 2 4 5 7 8 8 9 8 18 23 19 22 24 21 22 23 23 22 22 23 23 21 18 18 18 18 18 17 17 17 18 18 17 17 17 15 14 14 13 13 12 12 11 11 11 12 13 13 12 13 14 15 18 19 19 20 18 18 18 17 16 15 14 14 13 12 12 11 11 11 11 11 11 11 11 11 11 12 13 13 13 14 15 15 16 17 18
4 6 5 5 5 6 6 2 3 3 3 5 4 6 8 8 11 11 12 14 11 12 16 15 16 19 20 20 21 22 23 22 20 20 20 20 20 19 19 20 20 20 19 19 19 16 16 16 14 14 13 12 12 12 12 13 14 15 16 18 19 20 21 21 20 20 18 17 16 16 15 14 13 12 12 11 11 11 11 11 11 10 11 11 11 12 12 13 13 14 14 15 16 16 17 17 17
5 7 9 9 7 7 6 3 2 2 4 3 2 3 5 4 8 8 4 6 6 10 13 14 16 17 18 20 21 21 21 20 20 21 21 22 22 22 22 23 23 22 21 21 20 18 17 17 16 15 15 14 14 14 14 14 15 17 19 20 20 21 21 20 18 18 17 15 15 14 13 12 11 10 10 10 10 10 10 10 10 10 11 11 12 13 13 13 14 15 15 16 16 17 16 16 17
4 4 5 9 8 5 5 5 2 2 3 1 2 2 5 5 6 6 4 6 8 8 10 14 18 19 20 22 23 23 21 20 21 21 22 23 24 24 24 25 25 24 23 22 21 20 19 19 18 17 17 17 17 17 17 18 19 20 20 19 19 18 18 19 17 16 15 14 13 12 11 10 9 9 9 9 9 9 9 9 10 10 11 11 12 12 13 14 15 16 16 16 17 17 17 17 17
3 3 3 2 4 4 3 3 3 3 3 2 3 3 5 8 8 7 6 7 8 9 10 12 19 24 24 24 25 25 24 23 23 23 24 25 25 25 26 27 27 26 25 25 23 22 21 20 20 19 19 20 22 22 22 21 21 20 19 18 18 16 15 16 16 14 13 12 11 11 10 9 8 8 8 8 8 8 8 9 9 10 10 11 12 13 14 15 15 16 16 16 16 16 17 17 17
2 1 3 4 3 1 1 2 4 3 4 3 4 4 4 7 5 6 8 8 10 12 12 12 19 25 26 27 26 26 26 25 25 24 26 26 26 27 28 28 29 28 27 26 25 24 23 22 22 21 22 22 23 22 22 22 20 19 18 16 16 15 14 14 14 13 12 11 10 9 8 7 7 7 7 7 7 8 8 9 10 11 12 13 14 14 15 15 15 15 16 16 16 16 17 16 16
3 3 5 5 3 3 1 1 1 2 4 6 5 6 4 7 4 5 6 7 10 12 11 13 20 25 26 27 28 28 28 27 26 25 26 27 27 29 29 29 30 30 29 28 26 25 25 25 25 24 24 23 22 21 21 21 19 17 16 14 14 14 14 13 13 12 12 10 9 8 8 7 6 6 6 7 7 8 9 10 11 12 13 14 14 15 15 15 16 16 16 16 16 16 16 16 16
7 5 5 4 2 2 1 1 1 1 6 6 9 10 6 6 3 6 6 6 9 9 7 8 16 23 25 26 28 29 29 29 28 27 27 28 30 31 30 30 31 31 30 29 27 27 28 27 27 27 26 24 23 22 21 20 19 17 15 14 12 12 13 12 12 11 11 9 8 8 7 6 5 5 6 6 7 8 9 10 11 12 13 14 14 15 15 16 16 16 16 16 16 16 16 16 16
6 4 4 3 1 3 2 1 2 2 7 4 9 13 10 7 5 3 4 4 4 6 6 9 12 20 25 26 28 29 29 30 30 30 30 32 33 33 32 32 33 32 31 31 30 30 31 30 29 28 27 26 24 23 21 20 19 17 16 14 13 12 12 11 11 10 10 9 7 7 6 5 5 5 5 6 6 8 9 10 11 12 13 14 15 15 16 16 16 16 16 16 17 17 17 17 17
3 4 5 3 0 1 1 3 3 5 7 3 3 8 9 9 7 6 7 2 2 2 7 15 17 22 26 27 28 29 29 30 32 33 34 36 36 36 35 35 35 34 33 33 33 33 33 32 30 29 28 27 25 24 22 20 19 18 16 15 14 13 12 11 10 9 9 8 7 6 5 4 4 4 4 5 6 8 9 10 11 12 13 14 14 15 15 15 15 16 16 16 16 16 17 17 17
6 5 6 5 3 2 3 4 3 5 5 3 2 3 3 5 4 10 13 4 4 4 7 20 25 27 29 29 30 30 30 32 33 35 37 38 38 37 38 38 37 36 35 35 35 35 34 32 31 29 28 27 25 24 22 21 20 18 17 15 14 13 12 12 10 9 9 7 6 5 4 3 2 3 3 5 6 7 9 10 11 12 12 13 13 14 14 14 15 15 15 16 16 16 16 17 17
8 6 5 5 5 4 4 4 4 3 2 2 2 1 3 2 1 5 4 3 6 5 7 18 23 26 28 28 29 30 31 33 34 36 38 39 39 39 39 39 39 38 38 37 37 36 35 33 32 30 28 27 26 24 23 21 20 19 17 16 15 14 12 11 10 9 8 6 5 4 2 2 1 2 3 4 6 7 8 9 10 11 11 12 12 13 13 14 14 14 15 15 15 15 15 15 16
5 4 5 5 4 4 3 2 2 1 2 2 2 3 4 3 1 2 4 6 5 4 8 17 20 23 27 27 29 30 32 34 35 36 38 39 40 40 41 41 40 40 39 39 38 37 36 34 32 30 28 27 26 25 24 22 21 20 18 17 15 14 13 11 10 9 8 6 4 3 2 1 0 1 3 4 5 7 8 9 10 11 11 12 12 13 13 13 13 13 13 13 14 14 14 14 15
3 4 5 4 2 3 3 2 2 3 3 4 5 5 4 2 3 4 6 3 4 2 5 13 19 24 27 27 29 31 32 34 36 37 39 40 41 41 42 42 42 42 41 40 39 37 35 34 32 31 29 28 26 25 24 23 21 20 19 17 16 14 13 12 10 9 7 5 4 3 2 2 2 2 3 4 6 7 8 9 10 11 12 12 12 12 12 12 12 12 12 13 13 13 14 14 14
4 4 5 2 4 2 1 1 2 1 6 4 5 7 4 3 4 3 6 4 4 5 6 9 16 21 24 26 29 31 33 34 35 36 38 40 42 43 43 43 43 42 41 40 39 37 35 33 32 31 30 29 27 26 25 23 22 20 19 18 17 15 14 12 11 9 7 5 4 4 3 3 3 3 4 5 6 7 8 9 10 11 11 11 11 11 11 12 12 12 13 13 13 13 14 14 15
4 2 2 3 1 1 3 2 3 4 6 5 4 8 7 7 6 4 7 9 9 8 8 9 13 20 23 25 28 30 32 34 35 37 40 42 44 45 45 45 44 43 42 40 39 37 35 34 32 31 29 28 27 27 25 24 23 21 20 19 18 16 15 13 11 9 7 6 6 5 5 5 5 4 4 5 6 7 8 10 10 11 11 11 11 11 12 12 12 13 13 13 13 14 14 15 15
2 3 3 1 2 3 4 3 2 3 4 6 5 5 5 6 8 10 12 14 12 11 10 11 15 22 26 27 30 33 34 37 39 40 43 44 46 47 47 46 45 44 42 41 40 38 36 35 33 31 30 29 29 27 26 25 24 23 21 20 19 17 16 14 12 10 9 8 8 8 8 7 7 6 5 6 6 7 8 10 11 11 11 11 11 12 12 13 13 14 14 14 14 14 15 15 16
4 1 3 3 2 1 0 2 2 2 3 4 6 7 4 3 6 11 15 14 13 14 14 13 17 24 28 30 33 36 37 39 41 43 45 46 47 48 47 47 45 44 43 41 40 38 37 36 35 33 32 31 30 28 27 26 25 23 22 21 20 18 17 15 13 11 11 10 10 10 10 9 8 7 7 6 6 7 8 10 10 11 11 11 12 12 13 14 15 15 15 15 15 15 15 16 16
8 7 8 8 6 3 1 5 4 3 4 4 4 9 7 2 0 5 11 11 11 16 15 13 19 27 29 32 35 37 39 41 43 45 46 48 49 49 48 48 46 45 44 43 41 40 39 38 36 35 34 32 31 30 29 27 25 24 23 22 21 19 18 16 14 13 13 13 13 12 12 11 10 9 8 6 6 7 8 9 10 11 11 12 13 14 15 16 16 16 16 16 16 16 16 17 17
Wind_Direction
110 124 121 113 106 37 358 18 307 238 153 74 86 100 61 56 122 68 65 77 75 45 34 35 25 27 39 39 76 69 50 47 53 67 114 118 108 127 112 48 44 126 171 163 173 179 174 175 168 164 162 159 157 150 151 145 127 114 118 87 58 58 47 40 44 69 85 91 101 103 103 96 91 86 77 70 66 63 57 53 47 43 43 38 34 36 34 27 24 19 12 5 1 360 358 1 4
109 119 121 122 104 359 329 153 267 237 107 78 67 81 126 132 58 55 54 57 60 53 47 42 55 42 46 122 95 75 50 54 77 90 101 99 76 88 85 48 84 125 161 162 164 175 175 174 173 172 170 166 162 158 156 150 131 110 107 96 55 54 43 42 41 60 86 89 95 101 103 97 90 83 74 67 63 61 57 52 47 46 45 36 31 28 25 21 12 2 352 346 345 345 345 347 350
106 110 122 119 8 316 293 219 232 256 108 95 83 98 240 86 69 65 62 60 58 54 62 84 84 15 349 133 81 77 60 56 76 93 101 121 45 74 79 67 106 130 165 171 153 171 176 174 179 178 174 171 169 173 166 156 139 115 98 88 56 56 42 48 45 54 84 86 90 98 99 96 87 76 65 60 61 60 55 50 46 46 37 30 29 22 16 10 359 350 343 338 337 338 338 343 346
100 102 111 75 354 289 272 230 244 335 77 100 100 88 54 75 81 79 73 68 56 34 23 72 81 20 22 45 53 72 58 47 64 83 99 103 87 85 80 85 117 139 166 172 152 168 171 173 182 187 178 171 175 181 174 171 160 142 124 92 55 48 34 44 46 52 81 93 95 102 102 97 87 71 59 52 55 57 55 50 44 42 30 27 25 15 1 350 349 349 346 340 337 338 339 344 350
100 105 96 48 346 278 296 274 304 44 34 77 112 97 81 84 91 94 88 80 60 40 29 20 68 75 56 39 43 57 25 42 60 66 89 84 96 105 92 92 109 135 148 150 165 167 166 175 186 194 186 176 179 180 178 185 171 157 144 115 87 50 35 45 53 53 74 103 105 104 109 100 84 68 57 50 48 50 54 55 54 50 34 23 15 7 354 345 349 353 351 348 343 341 345 350 358
100 104 86 359 292 295 306 285 58 80 358 360 110 95 82 83 90 104 105 99 77 64 51 20 44 91 84 60 61 51 33 77 66 65 95 97 114 122 107 95 94 125 126 139 189 183 177 189 191 194 194 185 184 179 176 189 189 178 162 137 97 65 66 66 74 63 62 106 119 110 111 103 82 67 56 48 46 45 51 60 63 55 40 24 8 1 359 353 352 354 352 353 352 348 351 357 8
78 75 73 302 280 277 276 283 74 88 352 15 98 96 85 87 105 127 121 122 108 86 70 50 42 83 110 109 70 46 50 93 101 91 101 108 116 129 122 108 109 121 122 156 192 201 207 209 194 190 194 191 189 182 179 189 197 191 183 178 137 54 74 80 91 90 65 101 124 117 108 94 79 65 53 44 46 45 48 61 64 56 41 21 7 6 7 358 353 354 353 354 355 354 359 6 20
47 7 298 287 283 217 282 51 63 75 41 39 67 77 90 99 102 124 103 91 104 92 76 73 16 24 110 115 94 56 63 82 87 95 104 111 116 130 136 127 130 131 138 174 194 203 213 212 192 186 189 194 195 189 190 193 196 194 186 176 157 180 20 70 101 126 89 98 115 118 106 85 73 53 44 39 45 45 46 52 57 56 30 3 359 2 0 352 352 355 355 357 358 357 8 19 30
355 320 294 274 255 228 352 79 81 89 106 88 77 81 93 102 26 22 105 103 87 74 54 37 350 20 104 95 102 93 75 76 79 94 104 113 123 130 138 147 149 151 155 171 199 211 213 202 184 181 185 192 200 198 198 200 201 196 185 182 165 178 212 334 261 182 139 118 111 113 99 83 72 47 40 32 38 43 48 46 45 44 9 354 352 353 351 350 355 358 359 1 2 1 8 25 37
318 276 297 311 258 197 110 106 107 105 101 105 106 108 107 112 84 17 98 115 88 77 55 15 15 75 112 99 104 104 78 70 75 95 106 116 131 135 140 153 165 171 165 170 199 211 202 192 179 179 184 186 198 205 204 207 206 199 190 188 172 180 193 188 208 188 179 162 137 126 98 93 79 52 36 17 30 38 44 50 39 20 352 346 348 350 350 355 360 360 1 3 6 5 4 17 42
303 234 267 319 266 200 183 122 111 121 114 108 104 113 117 116 131 38 87 98 89 106 72 3 36 43 107 103 106 119 91 78 81 96 106 123 141 149 147 151 166 182 180 184 202 209 191 188 182 183 187 184 193 203 203 208 206 204 203 199 190 198 205 193 182 179 186 181 173 169 156 141 123 102 23 347 2 19 26 53 21 355 342 339 346 349 351 358 1 359 360 2 6 8 5 5 28
301 250 164 268 273 287 89 117 126 125 124 141 124 125 130 139 187 167 107 110 137 115 71 15 43 3 57 112 126 158 141 97 82 72 83 160 175 180 169 162 165 177 194 196 203 216 199 187 186 188 191 189 192 198 200 206 208 207 209 211 208 210 220 223 211 190 192 197 195 186 190 195 180 202 240 303 303 323 338 356 337 333 335 339 347 350 353 359 359 356 356 0 5 10 8 0 6
304 319 357 257 287 33 31 94 115 115 138 170 132 132 144 166 194 48 60 135 137 101 74 51 62 345 55 116 138 169 166 96 39 24 307 247 232 222 203 188 178 177 193 201 202 211 208 195 194 193 193 194 195 198 201 208 211 211 212 214 213 218 226 225 226 231 221 212 217 207 201 202 196 220 246 265 280 300 308 305 308 318 329 338 348 349 351 355 354 350 350 356 3 9 10 2 354
347 342 353 270 309 45 39 80 111 131 162 124 118 136 150 136 64 43 350 51 73 66 85 97 67 308 77 112 140 167 159 89 342 296 267 249 240 235 224 213 199 194 193 201 203 208 221 216 208 201 196 197 199 201 201 206 212 215 215 215 217 224 227 224 221 228 250 239 232 231 220 213 207 230 253 258 274 297 306 312 311 313 324 333 342 344 348 353 349 345 346 351 360 6 10 5 352
351 337 307 284 323 43 26 79 142 170 144 105 127 147 143 84 86 70 3 45 73 72 72 55 260 250 34 82 140 168 352 321 308 293 270 244 236 230 225 226 214 211 207 204 201 205 214 222 228 219 208 203 202 203 205 207 211 215 218 219 221 225 227 227 224 218 231 245 239 246 247 230 221 236 254 265 273 290 301 311 315 313 321 332 339 342 348 352 348 344 345 349 359 6 9 8 359
336 340 313 294 271 126 297 93 134 174 109 113 140 149 139 108 117 90 47 79 113 128 103 96 235 160 360 37 107 292 315 311 301 294 266 237 257 269 246 231 226 222 221 219 210 207 205 204 218 230 230 219 208 205 207 210 215 220 221 223 225 226 226 227 229 225 226 240 244 248 256 252 254 258 261 275 285 293 298 304 308 309 318 333 340 344 351 354 348 346 348 350 359 9 11 8 4
356 22 319 256 206 138 191 158 108 128 105 124 151 160 156 130 142 97 66 121 133 144 147 167 213 205 272 17 358 310 312 298 278 261 231 159 106 270 263 245 237 231 228 230 226 223 218 206 203 211 226 233 223 210 207 210 215 223 226 227 228 229 228 230 236 236 244 254 248 247 250 251 262 269 268 275 289 297 302 307 306 310 323 332 335 342 351 353 349 350 351 351 356 6 11 10 9
353 5 245 258 191 106 257 90 82 128 129 131 139 164 188 126 148 148 78 203 163 139 133 149 157 148 26 3 327 326 337 168 178 191 188 165 154 192 239 249 249 245 236 235 234 232 229 222 213 209 208 219 230 218 209 211 212 218 227 229 230 233 234 237 241 246 263 266 254 253 248 248 257 263 267 273 286 295 303 309 310 315 323 327 330 336 343 348 351 353 352 353 356 358 3 10 13
325 297 281 315 50 43 19 55 49 49 106 118 110 90 350 110 131 153 236 206 184 141 125 143 122 110 356 16 218 132 133 121 124 154 159 178 185 204 232 246 251 252 247 241 235 234 234 231 226 221 209 204 216 214 204 206 211 216 224 227 228 233 239 243 249 252 262 263 253 245 239 245 252 256 262 270 282 294 298 299 304 310 317 323 328 332 336 346 354 355 353 352 354 359 1 3 4
25 324 344 31 75 64 42 61 56 38 73 103 106 107 316 114 128 154 268 239 199 130 128 151 125 133 213 324 197 153 120 102 94 100 121 173 204 219 234 243 250 254 254 252 243 239 237 236 234 233 224 207 207 207 196 192 200 214 220 225 225 228 236 239 242 246 250 250 239 224 214 217 229 241 251 262 278 289 292 296 299 300 307 316 323 331 335 345 354 360 356 346 347 356 359 359 358
332 344 59 42 8 67 62 66 67 51 56 69 88 109 256 151 144 177 261 277 211 88 106 142 141 159 203 225 212 186 143 113 97 76 87 163 214 231 241 246 253 256 257 259 254 249 244 242 241 240 238 223 216 211 201 186 180 193 205 214 219 221 229 231 227 232 236 240 238 226 216 218 228 237 248 260 272 281 285 293 296 295 302 307 319 331 333 335 342 0 358 342 342 343 346 353 355
320 43 83 50 4 48 84 77 79 60 43 51 74 59 360 120 179 228 235 256 149 126 137 145 154 179 205 210 209 201 196 178 163 200 197 217 229 237 246 249 254 255 256 258 257 256 251 247 246 245 242 233 226 215 210 199 174 177 192 203 208 209 215 218 217 220 220 225 235 234 227 226 233 242 253 257 254 263 277 286 288 293 300 300 319 322 320 324 325 347 352 332 332 329 336 345 347
334 84 83 60 20 51 91 98 106 73 37 20 335 326 360 350 281 256 227 205 166 170 177 170 186 212 207 205 205 205 208 210 227 248 253 251 254 249 251 254 255 255 256 256 254 254 250 245 243 242 240 231 221 212 208 197 175 178 188 196 202 205 211 217 220 223 221 222 227 230 231 225 222 229 238 243 241 241 251 265 276 294 301 305 313 306 304 310 302 303 303 303 316 321 332 337 337
270 188 104 81 20 52 102 134 162 120 110 261 303 308 287 284 283 256 197 187 200 200 210 229 243 226 205 198 196 203 206 214 237 257 267 268 271 266 261 259 257 256 255 255 253 248 242 238 233 225 222 218 213 207 196 184 182 188 192 194 200 207 216 222 224 226 228 231 236 238 241 236 229 229 233 241 249 249 250 245 241 251 260 274 280 270 264 266 265 275 283 297 312 314 322 327 332
275 23 91 85 315 215 169 191 227 221 213 237 260 264 257 251 250 239 189 200 222 221 228 238 237 214 199 193 192 201 202 215 240 246 256 265 272 275 270 265 260 256 251 251 251 246 236 229 225 210 187 188 197 195 189 189 190 193 198 197 200 209 217 222 224 225 227 230 237 241 237 237 238 242 247 253 257 264 267 248 239 247 254 259 261 255 251 253 262 276 281 293 304 306 317 326 329
22 19 11 319 246 228 208 203 221 217 215 225 225 242 251 238 233 242 193 208 224 221 222 222 212 199 189 189 195 210 234 252 261 260 261 265 277 286 280 274 265 255 248 245 243 241 234 220 212 201 186 183 192 194 193 194 192 196 204 201 201 209 213 216 219 222 225 224 229 235 233 239 245 250 257 259 260 265 265 257 261 273 272 267 265 265 269 273 279 280 273 277 288 297 312 322 322
10 342 313 283 262 251 221 216 228 211 210 213 204 247 247 202 208 224 190 209 220 210 204 195 189 189 185 187 190 220 260 271 272 271 274 278 286 289 285 281 270 258 246 239 237 230 219 198 187 189 186 185 192 197 195 194 194 198 201 200 203 208 211 213 216 221 225 228 234 241 242 244 248 253 259 259 259 261 264 269 275 280 277 273 269 268 273 281 289 289 280 277 284 292 305 315 319
357 324 300 270 250 244 227 226 227 198 204 210 207 259 234 158 205 215 190 201 206 192 184 177 178 183 186 188 194 225 245 249 255 257 266 276 281 283 283 277 260 253 247 237 229 213 187 176 178 181 180 182 190 194 196 196 196 196 196 201 203 205 210 211 215 221 226 234 244 249 251 251 256 268 271 266 263 262 263 258 251 258 268 268 267 268 275 280 282 285 282 279 283 290 302 311 315
315 283 289 280 254 239 221 214 208 188 183 190 188 272 240 190 184 175 181 185 174 171 171 168 175 188 196 203 214 230 234 233 236 240 248 258 264 268 269 264 249 233 230 216 204 190 169 162 164 174 178 181 189 192 197 200 198 194 194 198 200 202 206 208 215 222 225 236 244 246 245 241 248 258 257 251 243 245 252 244 235 259 276 273 272 278 286 285 279 278 276 277 285 292 299 303 304
290 254 222 290 292 257 208 189 173 167 160 164 159 273 256 197 143 149 169 171 161 163 170 170 180 197 207 217 227 232 230 231 232 233 240 242 246 249 246 246 237 216 202 187 178 159 149 148 150 165 171 176 185 189 192 197 197 193 188 187 190 197 202 204 216 226 232 231 231 234 226 213 215 224 230 236 227 236 255 261 264 278 291 295 292 293 298 299 293 290 288 290 297 297 298 300 301
283 282 197 219 273 290 175 152 151 159 169 168 160 250 268 134 135 157 172 171 166 168 174 178 187 202 214 219 228 235 231 234 238 235 238 241 239 235 226 222 215 206 190 177 166 149 139 128 132 142 139 151 166 176 185 187 186 186 188 190 188 189 196 200 213 226 229 216 202 204 201 201 212 223 241 267 271 265 269 280 292 297 311 307 297 299 307 307 297 288 289 293 293 289 290 293 298
195 246 266 217 196 237 161 156 171 172 167 174 168 243 249 151 155 172 178 176 173 175 180 184 192 203 216 218 217 231 234 232 240 239 236 238 236 227 213 204 195 178 165 155 148 143 142 141 144 143 136 147 154 155 178 190 188 187 189 193 190 190 198 199 204 210 197 175 160 136 135 162 192 211 220 234 244 236 234 251 274 292 300 286 281 289 305 303 287 279 284 289 290 289 292 294 297
191 186 255 252 205 212 170 180 201 169 133 177 194 247 281 145 166 178 184 183 180 185 187 187 196 200 206 211 200 213 231 233 237 238 232 233 234 225 202 189 175 155 150 143 139 139 138 144 151 147 145 155 163 154 154 167 177 189 192 189 185 180 183 183 173 160 140 124 109 102 103 111 127 137 137 140 147 145 141 150 167 188 225 236 235 229 215 248 272 283 290 294 299 302 303 301 302
220 182 220 249 238 226 193 204 215 178 160 202 209 232 263 194 167 182 191 186 185 194 194 189 196 199 201 204 199 209 223 226 234 234 226 225 225 214 190 178 165 151 150 139 128 125 125 128 128 136 144 150 164 169 162 158 167 182 179 165 162 158 154 144 134 128 120 118 115 112 113 113 117 124 130 137 140 141 140 159 178 180 198 204 199 192 173 223 279 307 307 310 311 309 307 307 308
263 215 209 262 262 241 232 171 179 183 201 235 208 218 246 221 173 188 195 190 190 197 196 192 196 199 201 203 202 205 205 215 232 234 222 218 215 202 183 169 154 142 142 135 124 122 126 129 125 124 134 138 146 159 169 172 166 159 148 145 147 143 136 131 130 132 128 130 129 125 126 127 130 139 153 175 190 206 219 219 211 204 204 211 219 241 315 311 310 312 319 332 335 332 332 333 334
291 303 274 295 300 271 267 109 168 190 206 235 226 233 251 235 186 190 197 195 197 202 199 195 195 198 201 202 204 201 198 213 230 231 218 214 209 193 180 169 156 146 146 146 140 139 142 142 141 138 136 142 149 154 158 158 154 149 146 146 144 136 136 137 138 142 141 142 142 139 147 151 149 152 152 149 130 109 96 86 101 138 159 199 281 352 9 5 350 346 355 7 10 7 8 10 11
285 312 296 287 286 272 277 137 171 195 217 236 240 256 263 258 221 192 193 195 202 207 205 198 194 196 200 200 201 199 200 216 229 227 214 208 202 191 180 174 163 154 155 155 150 153 158 158 159 157 152 152 154 152 150 149 150 152 151 149 143 141 145 149 147 149 150 147 141 136 132 125 118 110 100 96 92 88 85 83 84 88 88 79 71 65 58 52 41 31 26 21 17 11 10 16 17
263 274 285 282 264 263 271 164 161 131 77 258 264 272 267 265 256 191 180 187 204 206 204 200 197 197 200 199 198 197 202 215 224 221 209 201 197 190 178 174 166 158 161 163 153 150 155 158 159 159 158 157 153 153 153 153 156 157 155 150 148 149 150 152 147 140 134 127 120 115 109 106 103 99 94 91 90 88 87 86 84 82 78 72 67 65 61 55 47 38 27 17 12 8 7 8 5
244 245 275 271 265 275 281 109 137 117 102 267 277 280 271 266 268 200 180 192 208 208 207 205 201 197 197 197 195 196 203 212 216 213 206 197 195 190 180 176 169 161 164 165 158 154 156 156 156 158 159 157 156 157 160 163 164 162 158 154 151 148 141 137 130 122 119 116 112 109 104 101 99 96 94 91 89 86 83 79 74 71 68 64 60 58 55 49 42 34 25 19 13 9 9 7 2
231 225 244 251 255 267 266 131 194 194 207 266 295 292 276 265 267 241 204 202 206 210 210 208 204 201 199 199 199 201 205 208 209 208 204 196 194 191 183 177 170 165 166 166 163 160 160 159 156 158 160 160 159 158 161 165 164 161 156 149 144 139 131 126 122 117 116 114 110 106 102 99 96 93 90 86 81 77 72 66 63 59 55 53 47 42 39 35 32 27 22 18 13 9 10 11 9
229 216 221 240 241 234 240 220 174 201 228 237 279 294 275 247 240 246 215 194 191 193 194 195 194 195 197 198 200 206 210 210 207 205 202 196 193 191 184 177 172 170 170 169 168 166 165 162 159 159 163 164 161 158 160 160 157 154 150 143 140 134 127 124 123 119 117 114 109 104 99 94 90 86 82 76 70 65 60 56 51 46 43 40 33 29 28 26 23 19 16 13 10 11 13 13 11
242 220 213 221 237 247 261 298 58 322 282 217 178 274 271 248 234 239 177 161 187 182 186 191 185 182 187 191 195 200 207 210 210 206 202 197 193 190 183 177 175 173 172 172 172 171 169 165 164 167 169 167 162 159 157 156 154 150 146 143 140 134 129 126 124 120 118 114 108 103 97 91 85 78 74 68 63 57 51 47 42 36 32 28 25 23 21 20 17 14 14 10 9 12 11 8 10
249 253 228 211 225 257 285 316 336 268 278 238 143 217 268 290 273 252 174 189 210 190 196 203 195 192 191 192 194 195 197 200 203 204 199 196 194 190 183 178 177 174 173 175 176 174 170 168 169 171 171 167 161 157 156 155 153 149 147 143 138 135 131 128 125 122 120 115 108 103 97 91 83 75 69 63 56 50 44 38 33 27 23 21 20 16 14 14 13 12 11 9 8 9 5 4 8
235 288 337 171 206 255 264 282 255 243 304 283 170 179 274 279 263 237 183 197 225 214 212 209 204 205 202 199 198 196 195 195 197 198 195 196 194 188 182 179 177 175 176 178 178 176 172 170 171 169 168 164 158 155 153 153 151 148 147 142 137 136 134 130 128 126 120 115 112 107 100 93 85 75 65 58 50 44 37 32 29 24 21 20 17 14 14 14 13 11 10 8 7 7 5 7 8
227 250 41 81 98 353 305 274 260 289 329 267 183 145 267 274 246 196 176 198 231 225 215 210 207 205 203 203 202 198 196 196 199 199 196 195 192 186 183 180 177 177 179 181 179 177 175 172 170 167 165 160 155 150 148 149 149 148 145 143 141 140 138 135 132 129 124 121 120 112 104 97 86 74 61 54 46 39 34 29 25 21 19 18 16 14 15 14 12 11 10 9 9 9 8 10 8
186 139 75 73 72 53 29 285 273 315 281 238 193 158 221 274 247 173 183 214 232 229 216 208 204 201 200 199 198 197 196 196 200 200 197 195 190 185 183 180 176 177 180 182 181 178 175 171 169 166 162 157 152 149 149 149 149 148 147 149 150 148 146 143 139 135 131 128 123 113 107 97 84 72 57 48 39 33 28 23 20 16 15 15 13 13 12 11 10 10 10 10 9 9 9 8 8
149 133 87 85 85 70 56 267 104 306 265 224 190 183 199 273 247 172 194 215 224 228 210 191 192 191 192 193 192 192 194 196 197 197 194 191 189 186 182 178 175 177 180 182 181 178 174 171 168 164 160 157 155 154 155 152 150 151 153 155 159 156 153 150 146 141 136 132 125 114 106 94 80 66 50 40 32 27 21 16 13 11 12 11 10 9 8 7 7 7 7 6 5 5 5 5 5
137 126 106 102 28 45 35 259 140 227 257 217 189 192 195 233 247 200 204 182 205 234 190 168 175 179 183 187 189 189 191 193 192 192 191 188 189 186 180 178 177 179 182 182 180 177 174 171 168 165 161 160 160 159 158 156 154 157 159 161 163 161 156 153 150 145 138 134 125 113 103 91 75 59 46 34 25 20 15 11 9 8 8 7 5 5 3 2 2 1 359 358 357 357 357 357 356
154 130 121 119 199 342 315 215 181 226 250 274 200 191 203 235 247 255 257 187 58 324 172 166 167 172 179 183 186 188 189 189 189 190 191 190 189 185 180 179 179 181 182 181 179 176 174 172 169 167 165 164 164 163 161 161 161 163 166 168 167 164 160 156 154 148 142 135 124 112 101 86 67 50 38 24 16 13 9 6 5 4 2 1 0 358 357 355 353 352 350 349 350 349 349 348 347
181 155 149 159 169 221 244 215 221 243 245 304 344 161 224 276 256 238 247 221 88 40 149 171 173 174 180 182 183 186 187 189 189 191 192 191 188 184 181 180 179 181 181 180 179 177 175 173 171 170 169 168 167 166 166 167 168 170 171 172 172 170 165 160 157 152 145 137 127 116 100 85 60 39 23 9 7 4 0 359 358 357 356 354 353 350 349 348 346 346 345 345 344 343 343 341 339
195 175 171 186 171 196 225 199 222 257 277 311 325 142 186 228 253 230 241 101 101 72 134 166 173 175 177 178 180 184 187 189 191 192 192 191 187 184 182 181 181 181 181 181 181 179 178 176 174 174 173 172 171 171 172 173 174 175 175 176 175 173 169 165 162 156 150 143 134 123 108 101 57 9 357 354 356 355 353 352 350 349 348 347 347 346 345 344 343 342 340 339 338 336 335 334 333
210 171 189 220 196 201 238 210 178 135 342 287 214 232 220 205 232 150 88 76 100 95 130 149 158 166 170 173 179 184 187 189 191 192 192 190 187 185 183 182 182 183 182 183 182 181 180 178 176 177 178 177 176 176 177 178 180 180 180 181 179 176 174 171 167 162 158 153 147 144 149 165 250 324 335 341 343 342 341 341 341 342 343 345 345 344 343 341 339 337 334 332 331 329 329 329 330
183 166 201 210 146 177 228 278 56 100 274 260 181 241 286 283 263 168 133 110 114 133 157 151 155 163 168 175 181 185 188 190 192 193 192 189 187 186 185 184 184 184 184 184 184 183 183 181 180 180 181 182 180 181 182 183 185 185 184 183 182 180 179 177 174 172 168 166 169 175 189 214 246 280 306 321 326 328 332 337 340 343 345 346 344 343 341 338 335 332 330 328 326 326 326 327 328
135 182 203 122 54 34 161 273 349 168 254 260 185 223 236 203 249 185 148 169 183 202 202 168 163 168 174 181 184 187 189 191 193 192 192 190 188 188 187 187 187 186 186 186 186 186 185 185 185 185 185 185 184 185 187 188 189 189 188 186 185 185 183 182 181 180 181 182 186 196 205 220 237 258 288 308 316 324 332 338 342 345 346 345 343 341 337 333 330 327 326 324 324 324 325 327 327
130 205 243 108 93 239 141 199 253 214 251 276 213 220 219 203 214 178 181 205 204 200 198 186 180 181 184 185 185 188 189 190 192 192 192 192 190 190 189 189 189 189 189 189 189 189 187 187 189 189 189 189 189 189 190 191 192 192 192 190 189 189 188 189 189 189 193 196 201 210 216 227 238 256 282 300 312 323 333 339 343 345 344 343 339 335 331 328 326 325 324 324 324 325 326 327 326
66 351 314 98 139 186 164 194 225 188 242 275 253 232 228 212 193 175 194 209 199 187 190 198 195 189 188 187 186 189 190 191 192 192 194 193 192 192 192 191 192 191 191 191 191 191 190 191 191 191 192 193 193 193 194 194 195 195 195 193 193 193 193 195 196 198 203 207 213 218 223 231 239 253 273 291 308 322 332 338 341 340 338 335 332 329 327 326 325 325 325 325 325 326 325 326 326
176 202 223 191 162 116 134 242 215 183 230 263 268 263 248 203 186 181 191 203 195 185 191 201 198 192 191 190 190 191 192 193 193 194 195 195 194 195 194 194 194 194 194 194 194 194 193 194 194 193 194 195 195 196 197 198 198 197 198 198 197 198 199 200 202 205 211 216 219 223 227 232 239 251 267 284 303 319 330 334 335 333 331 329 327 326 326 326 326 325 324 324 324 324 324 325 326
189 193 193 190 183 156 215 249 209 183 230 228 256 269 258 230 279 179 183 193 191 188 192 195 194 192 193 195 195 195 195 195 196 196 196 196 196 196 196 196 196 196 197 197 196 196 197 197 196 196 197 197 198 199 200 201 200 199 201 202 202 202 203 206 208 211 217 220 222 225 229 233 239 249 262 277 296 316 327 329 329 328 326 324 324 324 324 324 323 322 322 321 321 322 322 323 324